TimeEDT,TemperatureF,Dew PointF,Humidity,Sea Level PressureIn,VisibilityMPH,Wind Direction,Wind SpeedMPH,Gust SpeedMPH,PrecipitationIn,Events,Conditions,WindDirDegrees,DateUTC
12:53 AM,21.9,12.0,66,30.04,10.0,West,3.5,-,N/A,,Clear,260,2013-03-21 04:53:00
2:53 AM,19.9,12.0,71,30.02,10.0,WSW,5.8,-,N/A,,Clear,240,2013-03-21 06:53:00
3:53 AM,19.9,12.9,74,30.01,10.0,WSW,4.6,-,N/A,,Clear,250,2013-03-21 07:53:00
4:53 AM,19.9,12.0,71,29.99,10.0,WSW,3.5,-,N/A,,Clear,250,2013-03-21 08:53:00
5:53 AM,19.0,10.9,71,29.99,10.0,WSW,3.5,-,N/A,,Clear,250,2013-03-21 09:53:00
6:53 AM,19.9,10.0,65,29.99,10.0,WNW,4.6,-,N/A,,Overcast,300,2013-03-21 10:53:00
7:53 AM,19.9,10.0,65,30.00,10.0,West,4.6,-,N/A,,Overcast,280,2013-03-21 11:53:00
8:53 AM,21.9,12.0,66,30.01,10.0,WNW,5.8,-,N/A,,Partly Cloudy,290,2013-03-21 12:53:00
9:16 AM,23.0,12.2,63,29.99,10.0,WNW,9.2,-,N/A,,Mostly Cloudy,300,2013-03-21 13:16:00
9:53 AM,21.9,16.0,78,30.04,1.8,NW,9.2,-,0.00,Snow,Light Snow,310,2013-03-21 13:53:00
10:00 AM,21.2,15.8,80,30.01,2.5,WNW,6.9,-,0.00,Snow,Light Snow,300,2013-03-21 14:00:00
10:03 AM,23.0,15.8,74,30.01,4.0,NW,10.4,16.1,0.00,Snow,Light Snow,320,2013-03-21 14:03:00
10:20 AM,24.8,14.0,64,30.02,10.0,NW,8.1,17.3,0.00,,Overcast,310,2013-03-21 14:20:00
10:46 AM,21.2,15.8,80,30.02,1.8,NW,12.7,17.3,0.00,Snow,Light Snow,320,2013-03-21 14:46:00
10:53 AM,21.9,15.1,75,30.06,1.2,WNW,9.2,-,0.00,Snow,Light Snow,300,2013-03-21 14:53:00
10:58 AM,21.2,14.0,74,30.02,3.0,WNW,6.9,-,0.00,Snow,Light Snow,290,2013-03-21 14:58:00
11:16 AM,24.8,12.2,59,30.03,10.0,NW,10.4,17.3,0.00,,Mostly Cloudy,320,2013-03-21 15:16:00
11:53 AM,27.0,10.9,51,30.06,10.0,NNW,9.2,17.3,0.00,,Overcast,330,2013-03-21 15:53:00
12:53 PM,25.0,12.0,58,30.06,5.0,WNW,8.1,-,0.00,Snow,Light Snow,290,2013-03-21 16:53:00
1:53 PM,27.0,10.0,49,30.07,10.0,NW,8.1,-,0.00,,Overcast,310,2013-03-21 17:53:00
2:53 PM,28.0,10.9,49,30.06,10.0,West,6.9,-,N/A,,Overcast,280,2013-03-21 18:53:00
3:53 PM,30.9,10.0,42,30.04,10.0,West,10.4,-,N/A,,Overcast,280,2013-03-21 19:53:00
4:53 PM,33.1,9.0,37,30.03,10.0,West,6.9,-,N/A,,Clear,280,2013-03-21 20:53:00
5:53 PM,30.9,9.0,40,30.02,10.0,Variable,4.6,-,N/A,,Clear,0,2013-03-21 21:53:00
6:53 PM,32.0,9.0,38,30.02,10.0,SW,3.5,-,N/A,,Clear,230,2013-03-21 22:53:00
7:53 PM,30.0,9.0,41,30.03,10.0,NW,3.5,-,N/A,,Clear,310,2013-03-21 23:53:00
8:53 PM,26.1,14.0,60,30.05,10.0,Calm,Calm,-,N/A,,Clear,0,2013-03-22 00:53:00
9:53 PM,24.1,15.1,69,30.06,10.0,Calm,Calm,-,N/A,,Clear,0,2013-03-22 01:53:00
10:53 PM,21.9,14.0,72,30.07,10.0,Calm,Calm,-,N/A,,Clear,0,2013-03-22 02:53:00
11:53 PM,21.0,14.0,74,30.07,10.0,Calm,Calm,-,N/A,,Clear,0,2013-03-22 03:53:00